Tracking 18796 objects as of 19-September-2017
HD Live streaming from Space Station
objects crossing your sky now

SL-12 R/B(2)

Track SL-12 R/B(2) now!


NORAD ID: 24919
Int'l Code: 1997-046D
Perigee: 8,388.1 km
Apogee: 36,001.0 km
Inclination: 14.6 °
Period: 800.8 minutes
Semi major axis: 28565 km
RCS: 29.9426 m2 (large)
Launch date: August 28, 1997
Source: Commonwealth of Independent States (former USSR) (CIS)
Launch site: TYURATAM MISSILE AND SPACE COMPLEX (TTMTR)

Note: This is a ROCKET BODY
aabbcc
Your satellite tracking list
Your tracking list is empty





NASA's NSSDC Master Catalog

Two Line Element Set (TLE):
1 24919U 97046D   17262.06296010 -.00000147 +00000-0 +00000-0 0  9996
2 24919 014.5911 049.0712 4833257 179.4895 150.6470 01.79820673131704
Source of the keplerian elements: AFSPC